User: anonymous   Login
Location: Unspecified
(0.0000°N, 0.0000°E)
Time: 04:00:57
(UTC+00:00)
Language:

Tiangong 1 - Orbit

View from above orbital plane
View from above orbital plane
View from above satellite
View from above satellite

Ground track
Ground track

The orbit data is extracted from the following two-line orbital elements,

1 37820U 11053A   14303.75195389  .00077381  00000-0  57326-3 0  5301
2 37820 042.7695 214.7309 0008788 213.7010 243.2489 15.71904220177330
Epoch (UTC): 30 October 2014 18:02:48
Eccentricity: 0.0008788
inclination: 42.7695°
perigee height: 347 km
apogee height: 359 km
right ascension of ascending node: 214.7309°
argument of perigee: 213.7010°
revolutions per day: 15.71904220
mean anomaly at epoch: 243.2489°
orbit number at epoch: 17733

The dashed part of the orbit path shows where the satellite is in the earth's shadow,  

DLR